Regional Weather Roundup
Issued by NWS Kansas City/Pleasant Hill, MO

Home | Current Version | Previous Version | Text Only | Print | Product List | Glossary On
Versions: 1 2 3 4 5 6 7 8 9 10 11 12 13 14 15 16 17 18 19 20 21 22 23 24 25 26 27 28 29 30 31 32 33 34 35 36 37 38 39 40 41 42 43 44 45 46 47 48 49 50
000
ASUS43 KEAX 221011
RWREAX

WEATHER ROUNDUP FOR EASTERN KANSAS AND NORTHWEST MISSOURI
NATIONAL WEATHER SERVICE KANSAS CITY/PLEASANT HILL MO
500 AM CDT FRI MAY 22 2015

KSZ040-057-103>105-MOZ028-029-037-043-221100-
...KANSAS CITY METROPOLITAN AREA...

CITY           SKY/WX    TMP DP  RH WIND       PRES   REMARKS
K.C. INTL      MOCLDY    53  44  71 NW5       30.22R
K.C. DOWNTOWN  CLEAR     52  46  80 CALM      30.22R
LEES SUMMIT    CLEAR     51  43  74 CALM      30.22R
OLATHE - IXD   CLEAR     47  45  93 CALM      30.24R
OLATHE - OJC   CLEAR     48  46  93 CALM      30.22R
LAWRENCE       CLEAR     45  43  93 NE3       30.23R

$$

MOZ001>008-011>017-020>025-030>033-038>040-044>046-053-054-221100-
...NORTHERN AND CENTRAL MISSOURI...

CITY           SKY/WX    TMP DP  RH WIND       PRES   REMARKS
ST. JOSEPH     CLEAR     46  44  93 CALM      30.22R
MOSBY          SUNNY     45  45 100 CALM      30.22S
WARRENSBURG    CLEAR     46  43  87 CALM      30.22S
WHITEMAN AFB   CLEAR     48  44  87 CALM      30.21R
CLINTON        PTCLDY    46  46 100 MISG      30.23R
SEDALIA        CLEAR     52  43  71 W3        30.23S
WARSAW         NOT AVBL
CHILLICOTHE      N/A     47  44  90 CALM      30.22R
KIRKSVILLE     CLEAR     51  43  74 W6        30.19S

$$

MOZ041-047>049-056>058-063>065-088>090-097-221100-
...EASTERN AND SOUTHERN MISSOURI...

CITY           SKY/WX    TMP DP  RH WIND       PRES   REMARKS
ST. LOUIS INTL CLEAR     53  43  68 W6        30.21R
SPIRIT OF STL  CLEAR     49  44  83 CALM      30.20S
COLUMBIA       CLEAR     50  44  80 W5        30.21S
JEFFERSON CITY CLEAR     46  44  93 CALM      30.22S
ROLLA          CLEAR     43  41  93 SW6       30.21R
OSAGE BEACH    CLEAR     43  39  87 CALM      30.22S
SPRINGFIELD    CLEAR     44  40  85 CALM      30.22R
BRANSON        CLEAR     45  43  93 CALM      30.24R
JOPLIN         CLEAR     47  44  90 E5        30.24R
WEST PLAINS    CLEAR     40  37  89 CALM      30.24S

$$

IAZ060-094-KSZ022-034>040-054-083-096-NEZ052-066-093-221100-
...KANSAS...SOUTHEAST NEBRASKA AND IOWA...

CITY           SKY/WX    TMP DP  RH WIND       PRES   REMARKS
TOPEKA         PTCLDY    47  45  93 CALM      30.22S
MANHATTAN      CLOUDY    47  46  97 CALM      30.22S
EMPORIA        MOCLDY    46  44  93 NE3       30.20F
CHANUTE        PTCLDY    45  44  97 E3        30.21F
WICHITA        CLOUDY    53  47  79 E5        30.19F
OMAHA          PTCLDY    52  44  74 CALM      30.20R
LINCOLN        PTCLDY    48  42  80 CALM      30.22R
FALLS CITY     PTCLDY    49  44  83 CALM      30.21R
LAMONI         CLEAR     51  43  74 W8        30.19S
DES MOINES     CLEAR     52  41  66 NW6       30.17S

$$



USA.gov is the U.S. government's official web portal to all federal, state and local government web resources and services.